sat.trackr.live / text

‹ back to catalog

LEMUR-2-UNTITLED-SC

NORAD 63351 · 2025-061A

PAYLOAD ACTIVE UNKNOWN

§ Identity

Operator
Country
US
Launch date
2025-03-26
Launch site
RLLB
Launch vehicle
Mass (kg)
RCS (m²)

Purposes: earth_obs

External: N2YO · Heavens-Above · Gunter

§ Orbital elements

Epoch: 2026-09-19T16:20:59.954208Z

Period
95.11 min
Inclination
97.5754°
Eccentricity
0.0017006
Mean motion
15.14049343 rev/d
Perigee alt
512.1 km
Apogee alt
535.6 km
Semi-major
6,902.0 km
B*
1.6125e-4
RAAN
237.4460°
Arg perigee
302.5521°
Mean anomaly
57.4067°
Rev number
8,188

§ Raw data

LEMUR-2-UNTITLED-SC1 63351U 25061A   26262.68124947  .00002873  00000+0  16125-3 0  99982 63351  97.5754 237.4460 0017006 302.5521  57.4067 15.14049343 81883

JSON: /api/v1/satellites/63351 · /tle

For live sub-satellite position, see the globe view (requires WebGL).

§ Visibility from observer

Set your observer location to see the next 7 days of passes ≥ 10°. The values pass through the URL so the page stays shareable.

No JS? Fill the form by hand. The geolocation button needs JavaScript.